Location: Kennington
(51.1500°N, 0.8833°E)
Time: 11:35:23
(UTC+00:00)

Cosmos 2228 Rocket - Pass Details

Date: 21 September 2020
Orbit: 619 x 651 km, 82.5° (Epoch: 30 October)

Event Time Altitude Azimuth Distance (km) Brightness Sun altitude
Exits shadow 04:17:07 19° 226° (SW) 1,480 4.5 -13.8°
Maximum altitude 04:19:51 40° 287° (WNW) 917 3.5 -13.4°
Drops below altitude 10° 04:24:03 10° 358° (N) 2,007 5.9 -12.8°
Sets 04:26:25 0° 6° (N) 2,923 6.8 -12.4°
